| time (UTC) | temp F | wind direction | speed knots | gust knots | rain 1hr in | rain 24hr in | rain mn in | humidity % | barometer mb |
| 20260507021033 | 50 | 0 | 0.0 | 0.0 | 0.00 | 0.01 | 0.01 | 81 | 1016.7 |
| 20260507020528 | 50 | 0 | 0.0 | 0.0 | 0.00 | 0.01 | 0.01 | 80 | 1016.7 |
| 20260507020050 | 50 | 0 | 0.0 | 0.0 | 0.00 | 0.01 | 0.01 | 80 | 1016.6 |
| 20260507015527 | 50 | 0 | 0.0 | 0.0 | 0.00 | 0.01 | 0.01 | 79 | 1016.6 |
| 20260507015031 | 50 | 0 | 0.0 | 0.0 | 0.00 | 0.01 | 0.01 | 81 | 1016.6 |
| 20260507014541 | 51 | 0 | 0.0 | 0.0 | 0.00 | 0.01 | 0.01 | 80 | 1016.5 |
| 20260507014031 | 51 | 0 | 0.0 | 0.0 | 0.00 | 0.01 | 0.01 | 78 | 1016.5 |
| 20260507013530 | 51 | 0 | 0.0 | 0.0 | 0.00 | 0.01 | 0.01 | 75 | 1016.3 |
| 20260507013040 | 51 | 0 | 0.0 | 0.0 | 0.00 | 0.01 | 0.01 | 77 | 1016.2 |
| 20260507012533 | 52 | 0 | 0.0 | 0.0 | 0.00 | 0.01 | 0.01 | 75 | 1016.3 |
| 20260507012031 | 52 | 0 | 0.0 | 0.0 | 0.00 | 0.01 | 0.01 | 75 | 1016.3 |
| 20260507011547 | 53 | 0 | 0.0 | 0.0 | 0.00 | 0.01 | 0.01 | 75 | 1016.2 |
| 20260507011031 | 53 | 0 | 0.0 | 0.0 | 0.00 | 0.01 | 0.01 | 73 | 1016.3 |
| 20260507010530 | 53 | 0 | 0.0 | 0.0 | 0.00 | 0.01 | 0.01 | 72 | 1016.1 |
| 20260507010044 | 54 | 0 | 0.0 | 0.0 | 0.00 | 0.01 | 0.01 | 72 | 1016.2 |
| 20260507005532 | 54 | 0 | 0.0 | 0.0 | 0.00 | 0.01 | 0.01 | 70 | 1016.1 |
| 20260507005032 | 54 | 0 | 0.0 | 0.0 | 0.00 | 0.01 | 0.01 | 71 | 1016.1 |
| 20260507004544 | 54 | 0 | 0.0 | 0.0 | 0.00 | 0.01 | 0.01 | 71 | 1016.1 |
| 20260507004031 | 55 | 0 | 0.0 | 0.0 | 0.00 | 0.01 | 0.01 | 67 | 1016.2 |
| 20260507003532 | 55 | 0 | 0.0 | 1.7 | 0.00 | 0.01 | 0.01 | 67 | 1016.1 |
| 20260507003040 | 55 | 0 | 0.0 | 1.7 | 0.00 | 0.01 | 0.01 | 65 | 1016.0 |
| 20260507002530 | 55 | 360 | 0.9 | 1.7 | 0.00 | 0.01 | 0.01 | 66 | 1015.9 |
| 20260507002031 | 55 | 0 | 0.0 | 1.7 | 0.00 | 0.01 | 0.01 | 66 | 1016.0 |
| 20260507001609 | 56 | 0 | 0.0 | 1.7 | 0.00 | 0.01 | 0.01 | 66 | 1015.8 |
| 20260507001033 | 56 | 0 | 0.0 | 0.9 | 0.00 | 0.01 | 0.01 | 65 | 1016.0 |
| 20260507000530 | 56 | 0 | 0.0 | 1.7 | 0.00 | 0.01 | 0.01 | 65 | 1015.9 |
| 20260507000043 | 56 | 0 | 0.0 | 2.6 | 0.00 | 0.01 | 0.01 | 64 | 1015.9 |
| 20260506235534 | 56 | 360 | 0.9 | 2.6 | 0.00 | 0.01 | 0.01 | 63 | 1015.9 |
| 20260506235031 | 56 | 360 | 0.0 | 2.6 | 0.00 | 0.01 | 0.01 | 64 | 1015.9 |
| 20260506234551 | 56 | 360 | 0.9 | 2.6 | 0.00 | 0.01 | 0.01 | 63 | 1015.8 |
| 20260506234032 | 56 | 360 | 1.7 | 2.6 | 0.00 | 0.01 | 0.01 | 64 | 1015.8 |
| 20260506233532 | 56 | 360 | 0.0 | 2.6 | 0.00 | 0.01 | 0.01 | 65 | 1015.7 |
| 20260506233043 | 56 | 360 | 0.0 | 1.7 | 0.00 | 0.01 | 0.01 | 67 | 1015.6 |
| 20260506232531 | 56 | 0 | 0.0 | 0.9 | 0.00 | 0.01 | 0.01 | 67 | 1015.6 |
| 20260506232031 | 56 | 0 | 0.0 | 1.7 | 0.00 | 0.01 | 0.01 | 68 | 1015.6 |
| 20260506231543 | 56 | 0 | 0.0 | 2.6 | 0.00 | 0.01 | 0.01 | 66 | 1015.5 |
| 20260506231029 | 56 | 360 | 0.9 | 2.6 | 0.00 | 0.01 | 0.01 | 65 | 1015.4 |
| 20260506230532 | 56 | 360 | 0.9 | 2.6 | 0.00 | 0.01 | 0.01 | 69 | 1015.1 |
| 20260506230053 | 56 | 0 | 0.9 | 2.6 | 0.00 | 0.01 | 0.01 | 67 | 1015.0 |
| 20260506225530 | 56 | 360 | 0.9 | 3.5 | 0.00 | 0.01 | 0.01 | 66 | 1015.0 |
| 20260506225029 | 56 | 360 | 1.7 | 3.5 | 0.00 | 0.01 | 0.01 | 66 | 1014.9 |
| 20260506224544 | 56 | 360 | 1.7 | 3.5 | 0.00 | 0.01 | 0.01 | 66 | 1014.6 |
| 20260506224029 | 56 | 360 | 0.9 | 3.5 | 0.00 | 0.01 | 0.01 | 67 | 1014.6 |
| 20260506223529 | 56 | 360 | 1.7 | 3.5 | 0.00 | 0.01 | 0.01 | 66 | 1014.3 |
| 20260506223041 | 56 | 360 | 0.9 | 3.5 | 0.00 | 0.01 | 0.01 | 68 | 1014.3 |
| 20260506222532 | 56 | 360 | 0.9 | 4.3 | 0.00 | 0.01 | 0.01 | 69 | 1014.4 |
| 20260506222030 | 56 | 360 | 0.9 | 4.3 | 0.00 | 0.01 | 0.01 | 67 | 1014.6 |
| 20260506221551 | 56 | 360 | 0.9 | 3.5 | 0.00 | 0.01 | 0.01 | 69 | 1014.5 |
| 20260506221028 | 56 | 360 | 0.9 | 3.5 | 0.00 | 0.01 | 0.01 | 68 | 1014.6 |
| 20260506220528 | 56 | 360 | 1.7 | 3.5 | 0.00 | 0.01 | 0.01 | 68 | 1014.5 |
| 20260506220043 | 56 | 0 | 0.0 | 2.6 | 0.00 | 0.01 | 0.01 | 69 | 1014.7 |
| 20260506215527 | 56 | 360 | 0.9 | 3.5 | 0.00 | 0.01 | 0.01 | 67 | 1014.8 |
| 20260506215027 | 56 | 0 | 0.9 | 5.2 | 0.00 | 0.01 | 0.01 | 67 | 1015.0 |
| 20260506214541 | 56 | 360 | 1.7 | 5.2 | 0.00 | 0.01 | 0.01 | 67 | 1015.0 |
| 20260506214027 | 56 | 360 | 2.6 | 5.2 | 0.00 | 0.01 | 0.01 | 68 | 1015.0 |
| 20260506213527 | 56 | 360 | 0.9 | 2.6 | 0.00 | 0.01 | 0.01 | 68 | 1015.0 |
| 20260506213040 | 56 | 360 | 0.9 | 2.6 | 0.00 | 0.01 | 0.01 | 68 | 1015.0 |
| 20260506212526 | 56 | 0 | 0.0 | 3.5 | 0.00 | 0.01 | 0.01 | 71 | 1015.1 |
| 20260506212029 | 56 | 360 | 0.9 | 3.5 | 0.00 | 0.01 | 0.01 | 69 | 1015.0 |
| 20260506211540 | 56 | 360 | 0.9 | 3.5 | 0.00 | 0.01 | 0.01 | 69 | 1015.1 |
| 20260506211029 | 56 | 360 | 0.9 | 3.5 | 0.00 | 0.01 | 0.01 | 69 | 1015.2 |
| 20260506210532 | 55 | 360 | 0.9 | 2.6 | 0.00 | 0.01 | 0.01 | 70 | 1015.1 |
| 20260506210053 | 55 | 0 | 0.9 | 3.5 | 0.00 | 0.01 | 0.01 | 69 | 1015.2 |
| 20260506205528 | 55 | 360 | 0.9 | 3.5 | 0.00 | 0.01 | 0.01 | 71 | 1015.3 |
| 20260506205030 | 55 | 360 | 0.9 | 2.6 | 0.00 | 0.01 | 0.01 | 69 | 1015.4 |
| 20260506204547 | 55 | 360 | 0.0 | 2.6 | 0.00 | 0.01 | 0.01 | 71 | 1015.6 |
| 20260506204027 | 55 | 360 | 0.9 | 2.6 | 0.00 | 0.01 | 0.01 | 70 | 1015.7 |
| 20260506203530 | 55 | 0 | 0.0 | 1.7 | 0.00 | 0.01 | 0.01 | 73 | 1015.7 |
| 20260506203043 | 55 | 360 | 0.0 | 1.7 | 0.00 | 0.01 | 0.01 | 73 | 1015.7 |
| 20260506202532 | 55 | 0 | 0.0 | 2.6 | 0.00 | 0.01 | 0.01 | 72 | 1016.0 |
| 20260506202028 | 55 | 0 | 0.0 | 3.5 | 0.00 | 0.01 | 0.01 | 70 | 1016.0 |
| 20260506201538 | 55 | 0 | 0.9 | 3.5 | 0.00 | 0.01 | 0.01 | 69 | 1016.0 |
| 20260506201032 | 56 | 360 | 0.9 | 2.6 | 0.00 | 0.01 | 0.01 | 69 | 1016.1 |
| 20260506200527 | 56 | 360 | 0.0 | 2.6 | 0.00 | 0.01 | 0.01 | 68 | 1016.3 |
| 20260506200040 | 55 | 360 | 0.9 | 2.6 | 0.00 | 0.01 | 0.01 | 71 | 1016.4 |
| 20260506195530 | 55 | 0 | 0.9 | 2.6 | 0.00 | 0.02 | 0.01 | 70 | 1016.4 |
| 20260506195030 | 55 | 0 | 0.0 | 2.6 | 0.00 | 0.02 | 0.01 | 72 | 1016.3 |
| 20260506194542 | 54 | 0 | 0.9 | 2.6 | 0.00 | 0.02 | 0.01 | 72 | 1016.3 |
| 20260506194029 | 54 | 360 | 0.0 | 2.6 | 0.00 | 0.02 | 0.01 | 74 | 1016.3 |
| 20260506193529 | 54 | 0 | 0.0 | 0.0 | 0.00 | 0.02 | 0.01 | 73 | 1016.3 |
| 20260506193044 | 54 | 0 | 0.0 | 0.0 | 0.00 | 0.02 | 0.01 | 71 | 1016.4 |
| 20260506192528 | 54 | 0 | 0.0 | 0.0 | 0.00 | 0.02 | 0.01 | 71 | 1016.5 |
| 20260506192028 | 54 | 0 | 0.0 | 0.0 | 0.00 | 0.02 | 0.01 | 71 | 1016.6 |
| 20260506191542 | 54 | 0 | 0.0 | 1.7 | 0.00 | 0.02 | 0.01 | 71 | 1016.6 |
| 20260506191032 | 54 | 0 | 0.0 | 2.6 | 0.00 | 0.02 | 0.01 | 72 | 1016.3 |
| 20260506190532 | 54 | 0 | 0.0 | 3.5 | 0.00 | 0.02 | 0.01 | 72 | 1016.6 |
| 20260506190040 | 54 | 360 | 1.7 | 3.5 | 0.00 | 0.02 | 0.01 | 71 | 1016.4 |
| 20260506185531 | 54 | 0 | 0.9 | 2.6 | 0.00 | 0.03 | 0.01 | 74 | 1016.3 |
| 20260506185031 | 54 | 360 | 0.9 | 2.6 | 0.00 | 0.03 | 0.01 | 73 | 1016.6 |
| 20260506184549 | 53 | 360 | 0.0 | 2.6 | 0.00 | 0.03 | 0.01 | 72 | 1016.8 |
| 20260506184028 | 53 | 360 | 0.0 | 2.6 | 0.00 | 0.03 | 0.01 | 71 | 1016.7 |
| 20260506183530 | 53 | 360 | 0.9 | 4.3 | 0.00 | 0.03 | 0.01 | 73 | 1016.5 |
| 20260506183045 | 53 | 360 | 1.7 | 4.3 | 0.00 | 0.03 | 0.01 | 71 | 1017.0 |
| 20260506182527 | 53 | 360 | 0.9 | 3.5 | 0.00 | 0.03 | 0.01 | 71 | 1017.1 |
| 20260506182029 | 53 | 360 | 1.7 | 3.5 | 0.00 | 0.03 | 0.01 | 72 | 1017.1 |
| 20260506181549 | 53 | 360 | 0.9 | 3.5 | 0.00 | 0.03 | 0.01 | 72 | 1017.2 |
| 20260506181032 | 53 | 360 | 0.9 | 3.5 | 0.00 | 0.03 | 0.01 | 73 | 1017.4 |
| 20260506180533 | 52 | 360 | 0.9 | 3.5 | 0.00 | 0.03 | 0.01 | 73 | 1017.4 |
| 20260506180040 | 52 | 360 | 0.0 | 3.5 | 0.00 | 0.03 | 0.01 | 76 | 1017.5 |
| 20260506175533 | 52 | 360 | 1.7 | 3.5 | 0.00 | 0.03 | 0.01 | 72 | 1017.6 |
| 20260506175031 | 52 | 360 | 1.7 | 3.5 | 0.00 | 0.03 | 0.01 | 74 | 1017.7 |
| 20260506174541 | 52 | 360 | 1.7 | 3.5 | 0.00 | 0.03 | 0.01 | 73 | 1017.7 |
| 20260506174031 | 52 | 360 | 1.7 | 3.5 | 0.00 | 0.03 | 0.01 | 74 | 1017.7 |
| 20260506173530 | 51 | 360 | 0.9 | 3.5 | 0.00 | 0.03 | 0.01 | 75 | 1017.6 |
| 20260506173046 | 51 | 360 | 0.9 | 3.5 | 0.00 | 0.03 | 0.01 | 76 | 1017.9 |
| 20260506172530 | 51 | 360 | 0.9 | 3.5 | 0.00 | 0.03 | 0.01 | 74 | 1018.0 |
| 20260506172030 | 51 | 360 | 0.9 | 3.5 | 0.00 | 0.03 | 0.01 | 78 | 1017.9 |
| 20260506171541 | 51 | 360 | 0.0 | 2.6 | 0.00 | 0.03 | 0.01 | 79 | 1017.8 |
| 20260506171030 | 51 | 0 | 0.9 | 2.6 | 0.00 | 0.03 | 0.01 | 81 | 1017.6 |
| 20260506170531 | 50 | 0 | 0.0 | 2.6 | 0.00 | 0.03 | 0.01 | 82 | 1017.5 |
| 20260506170052 | 49 | 0 | 0.0 | 3.5 | 0.00 | 0.03 | 0.01 | 82 | 1017.6 |
| 20260506165532 | 49 | 360 | 0.0 | 3.5 | 0.00 | 0.03 | 0.01 | 80 | 1017.4 |
| 20260506165030 | 49 | 360 | 0.0 | 2.6 | 0.00 | 0.03 | 0.01 | 82 | 1017.5 |
| 20260506164554 | 49 | 360 | 0.9 | 2.6 | 0.00 | 0.03 | 0.01 | 82 | 1017.3 |
| 20260506164031 | 49 | 360 | 0.0 | 2.6 | 0.00 | 0.03 | 0.01 | 81 | 1017.2 |
| 20260506163530 | 49 | 0 | 0.0 | 2.6 | 0.00 | 0.03 | 0.01 | 83 | 1017.0 |
| 20260506163045 | 49 | 360 | 0.9 | 3.5 | 0.00 | 0.03 | 0.01 | 81 | 1017.3 |
| 20260506162530 | 48 | 360 | 0.9 | 3.5 | 0.00 | 0.03 | 0.01 | 81 | 1017.2 |
| 20260506162031 | 48 | 360 | 0.0 | 2.6 | 0.00 | 0.03 | 0.01 | 82 | 1017.2 |
| 20260506161540 | 48 | 360 | 0.9 | 3.5 | 0.00 | 0.03 | 0.01 | 81 | 1017.2 |
| 20260506161029 | 48 | 360 | 0.9 | 7.0 | 0.00 | 0.03 | 0.01 | 82 | 1017.1 |
| 20260506160528 | 48 | 360 | 2.6 | 7.0 | 0.00 | 0.03 | 0.01 | 81 | 1016.7 |
| 20260506160055 | 48 | 360 | 0.9 | 4.3 | 0.00 | 0.03 | 0.01 | 83 | 1016.7 |
| 20260506155532 | 48 | 360 | 2.6 | 4.3 | 0.00 | 0.03 | 0.01 | 83 | 1016.6 |
| 20260506155030 | 48 | 360 | 1.7 | 4.3 | 0.00 | 0.03 | 0.01 | 84 | 1016.6 |
| 20260506154544 | 47 | 360 | 2.6 | 4.3 | 0.00 | 0.03 | 0.01 | 83 | 1016.8 |
| 20260506154030 | 48 | 360 | 2.6 | 4.3 | 0.00 | 0.03 | 0.01 | 83 | 1016.7 |
| 20260506153530 | 48 | 0 | 0.9 | 3.5 | 0.00 | 0.03 | 0.01 | 85 | 1017.1 |
| 20260506153040 | 48 | 360 | 0.9 | 3.5 | 0.00 | 0.03 | 0.01 | 85 | 1017.0 |
| 20260506152530 | 48 | 360 | 0.9 | 3.5 | 0.00 | 0.03 | 0.01 | 86 | 1017.2 |
| 20260506152029 | 48 | 360 | 1.7 | 3.5 | 0.00 | 0.03 | 0.01 | 86 | 1017.1 |
| 20260506151544 | 48 | 360 | 1.7 | 4.3 | 0.00 | 0.03 | 0.01 | 85 | 1016.7 |
| 20260506151032 | 48 | 360 | 2.6 | 4.3 | 0.00 | 0.03 | 0.01 | 84 | 1016.7 |
| 20260506150530 | 48 | 360 | 1.7 | 3.5 | 0.00 | 0.03 | 0.01 | 87 | 1016.6 |
| 20260506150049 | 48 | 360 | 0.9 | 3.5 | 0.00 | 0.03 | 0.01 | 87 | 1016.7 |
| 20260506145530 | 47 | 360 | 1.7 | 3.5 | 0.00 | 0.03 | 0.01 | 87 | 1016.6 |
| 20260506145030 | 47 | 360 | 0.9 | 3.5 | 0.00 | 0.03 | 0.01 | 88 | 1016.8 |
| 20260506144542 | 47 | 360 | 1.7 | 3.5 | 0.00 | 0.03 | 0.01 | 87 | 1016.7 |
| 20260506144028 | 47 | 360 | 1.7 | 3.5 | 0.00 | 0.03 | 0.01 | 89 | 1016.5 |
| 20260506143531 | 46 | 360 | 1.7 | 3.5 | 0.00 | 0.03 | 0.01 | 89 | 1016.3 |
| 20260506143042 | 46 | 360 | 0.9 | 3.5 | 0.00 | 0.03 | 0.01 | 90 | 1016.3 |
| 20260506142530 | 46 | 360 | 0.9 | 3.5 | 0.00 | 0.03 | 0.01 | 90 | 1016.3 |
| 20260506142030 | 46 | 360 | 0.9 | 2.6 | 0.00 | 0.03 | 0.01 | 90 | 1016.1 |
| 20260506141544 | 46 | 360 | 0.9 | 3.5 | 0.00 | 0.03 | 0.01 | 90 | 1016.4 |
| 20260506141030 | 46 | 360 | 0.9 | 3.5 | 0.00 | 0.03 | 0.01 | 90 | 1016.5 |
| 20260506140533 | 45 | 360 | 0.9 | 2.6 | 0.00 | 0.03 | 0.01 | 90 | 1016.3 |
| 20260506140041 | 45 | 360 | 0.9 | 2.6 | 0.00 | 0.03 | 0.01 | 90 | 1016.3 |
| 20260506135529 | 45 | 360 | 0.9 | 3.5 | 0.00 | 0.03 | 0.01 | 90 | 1016.4 |
| 20260506135033 | 45 | 360 | 0.9 | 4.3 | 0.00 | 0.03 | 0.01 | 90 | 1016.5 |
| 20260506134545 | 45 | 360 | 1.7 | 4.3 | 0.00 | 0.03 | 0.01 | 90 | 1016.5 |
| 20260506134030 | 45 | 360 | 0.9 | 4.3 | 0.00 | 0.03 | 0.01 | 90 | 1016.3 |
| 20260506133530 | 45 | 360 | 0.9 | 4.3 | 0.00 | 0.03 | 0.01 | 91 | 1016.2 |
| 20260506133056 | 44 | 360 | 1.7 | 4.3 | 0.00 | 0.03 | 0.01 | 91 | 1016.3 |
| 20260506132532 | 44 | 360 | 0.9 | 3.5 | 0.00 | 0.03 | 0.01 | 92 | 1016.1 |
| 20260506132030 | 44 | 360 | 1.7 | 3.5 | 0.00 | 0.03 | 0.01 | 91 | 1016.4 |
| 20260506131542 | 44 | 360 | 1.7 | 3.5 | 0.00 | 0.03 | 0.01 | 92 | 1016.3 |
| 20260506131030 | 44 | 360 | 1.7 | 3.5 | 0.00 | 0.03 | 0.01 | 92 | 1016.3 |
| 20260506130533 | 44 | 360 | 0.9 | 4.3 | 0.00 | 0.03 | 0.01 | 92 | 1016.3 |
| 20260506130041 | 44 | 360 | 1.7 | 4.3 | 0.00 | 0.03 | 0.01 | 92 | 1016.3 |
| 20260506125531 | 44 | 360 | 0.9 | 3.5 | 0.00 | 0.03 | 0.01 | 92 | 1016.2 |
| 20260506125030 | 44 | 360 | 0.9 | 3.5 | 0.00 | 0.03 | 0.01 | 92 | 1016.2 |
| 20260506124541 | 44 | 360 | 1.7 | 4.3 | 0.00 | 0.03 | 0.01 | 92 | 1016.0 |
| 20260506124029 | 44 | 360 | 1.7 | 4.3 | 0.00 | 0.03 | 0.01 | 92 | 1016.0 |
| 20260506123531 | 44 | 360 | 0.9 | 2.6 | 0.00 | 0.03 | 0.01 | 92 | 1016.1 |
| 20260506123044 | 44 | 360 | 0.9 | 2.6 | 0.00 | 0.03 | 0.01 | 92 | 1016.0 |
| 20260506122530 | 44 | 360 | 0.9 | 2.6 | 0.00 | 0.03 | 0.01 | 92 | 1015.7 |
| 20260506122030 | 44 | 360 | 0.9 | 3.5 | 0.00 | 0.03 | 0.01 | 92 | 1015.7 |
| 20260506121553 | 43 | 360 | 0.9 | 3.5 | 0.00 | 0.03 | 0.01 | 93 | 1015.7 |
| 20260506121030 | 43 | 360 | 0.9 | 3.5 | 0.00 | 0.03 | 0.01 | 93 | 1015.8 |
| 20260506120530 | 43 | 360 | 1.7 | 3.5 | 0.00 | 0.03 | 0.01 | 93 | 1015.6 |
| 20260506120100 | 43 | 360 | 0.9 | 2.6 | 0.00 | 0.03 | 0.01 | 93 | 1015.5 |
| 20260506115531 | 43 | 360 | 0.9 | 2.6 | 0.00 | 0.03 | 0.01 | 93 | 1015.7 |
| 20260506115030 | 43 | 360 | 0.9 | 2.6 | 0.00 | 0.03 | 0.01 | 93 | 1015.6 |
| 20260506114541 | 43 | 360 | 0.9 | 2.6 | 0.00 | 0.03 | 0.01 | 93 | 1015.6 |
| 20260506114029 | 43 | 0 | 0.9 | 2.6 | 0.00 | 0.03 | 0.01 | 93 | 1015.4 |
| 20260506113529 | 43 | 360 | 0.9 | 2.6 | 0.00 | 0.03 | 0.01 | 93 | 1015.3 |
| 20260506113041 | 43 | 360 | 0.9 | 2.6 | 0.00 | 0.03 | 0.01 | 93 | 1015.2 |
| 20260506112528 | 43 | 360 | 0.9 | 1.7 | 0.00 | 0.03 | 0.01 | 93 | 1015.2 |
| 20260506112029 | 43 | 360 | 0.0 | 3.5 | 0.00 | 0.03 | 0.01 | 93 | 1015.2 |
| 20260506111547 | 43 | 360 | 0.9 | 3.5 | 0.00 | 0.03 | 0.01 | 93 | 1015.1 |
| 20260506111032 | 43 | 360 | 0.9 | 3.5 | 0.00 | 0.03 | 0.01 | 93 | 1015.0 |
| 20260506110532 | 43 | 360 | 0.0 | 1.7 | 0.00 | 0.03 | 0.01 | 93 | 1014.9 |
| 20260506110057 | 43 | 360 | 0.9 | 2.6 | 0.00 | 0.03 | 0.01 | 93 | 1014.7 |
| 20260506105534 | 43 | 360 | 0.9 | 2.6 | 0.00 | 0.07 | 0.01 | 93 | 1014.5 |
| 20260506105031 | 43 | 360 | 0.9 | 2.6 | 0.00 | 0.07 | 0.01 | 93 | 1014.4 |
| 20260506104557 | 43 | 360 | 0.9 | 1.7 | 0.00 | 0.07 | 0.01 | 93 | 1014.0 |
| 20260506104029 | 43 | 360 | 0.9 | 2.6 | 0.00 | 0.07 | 0.01 | 93 | 1013.9 |
| 20260506103530 | 43 | 360 | 0.0 | 2.6 | 0.00 | 0.07 | 0.01 | 93 | 1014.0 |
| 20260506103046 | 43 | 360 | 0.9 | 2.6 | 0.00 | 0.07 | 0.01 | 93 | 1013.8 |
| 20260506102533 | 43 | 0 | 0.9 | 2.6 | 0.00 | 0.07 | 0.01 | 93 | 1013.6 |
| 20260506102030 | 43 | 360 | 0.9 | 2.6 | 0.00 | 0.07 | 0.01 | 93 | 1013.5 |
| 20260506101541 | 43 | 360 | 0.9 | 3.5 | 0.00 | 0.07 | 0.01 | 93 | 1013.4 |
| 20260506101029 | 43 | 360 | 0.9 | 3.5 | 0.00 | 0.07 | 0.01 | 93 | 1013.3 |
| 20260506100533 | 43 | 360 | 0.9 | 3.5 | 0.00 | 0.07 | 0.01 | 93 | 1013.2 |
| 20260506100137 | 43 | 360 | 0.9 | 2.6 | 0.00 | 0.07 | 0.01 | 93 | 1013.0 |
| 20260506095530 | 43 | 360 | 0.9 | 3.5 | 0.00 | 0.22 | 0.01 | 94 | 1012.8 |
| 20260506095030 | 43 | 360 | 0.9 | 3.5 | 0.00 | 0.22 | 0.01 | 93 | 1012.4 |
| 20260506094543 | 43 | 360 | 0.9 | 3.5 | 0.00 | 0.22 | 0.01 | 94 | 1012.4 |
| 20260506094029 | 43 | 360 | 0.9 | 2.6 | 0.00 | 0.22 | 0.01 | 94 | 1012.5 |
| 20260506093532 | 43 | 360 | 0.9 | 2.6 | 0.00 | 0.22 | 0.01 | 94 | 1012.7 |
| 20260506093044 | 43 | 360 | 0.9 | 2.6 | 0.00 | 0.22 | 0.01 | 94 | 1012.8 |
| 20260506092530 | 43 | 0 | 0.9 | 2.6 | 0.00 | 0.22 | 0.01 | 94 | 1013.0 |
| 20260506092030 | 43 | 360 | 0.9 | 2.6 | 0.00 | 0.22 | 0.01 | 94 | 1013.1 |
| 20260506091541 | 43 | 0 | 0.9 | 2.6 | 0.00 | 0.22 | 0.01 | 94 | 1013.0 |
| 20260506091029 | 43 | 360 | 1.7 | 2.6 | 0.00 | 0.22 | 0.01 | 94 | 1012.9 |
| 20260506090529 | 43 | 360 | 0.9 | 3.5 | 0.00 | 0.22 | 0.01 | 94 | 1013.1 |
| 20260506090042 | 43 | 360 | 0.9 | 3.5 | 0.00 | 0.22 | 0.01 | 94 | 1012.8 |
| 20260506085532 | 43 | 360 | 1.7 | 3.5 | 0.01 | 0.41 | 0.01 | 94 | 1012.7 |
| 20260506085030 | 43 | 360 | 0.9 | 3.5 | 0.01 | 0.41 | 0.01 | 94 | 1012.7 |
| 20260506084612 | 43 | 360 | 1.7 | 3.5 | 0.01 | 0.41 | 0.01 | 94 | 1012.7 |
| 20260506084030 | 43 | 360 | 1.7 | 3.5 | 0.01 | 0.41 | 0.01 | 94 | 1012.6 |
| 20260506083530 | 43 | 360 | 0.9 | 2.6 | 0.01 | 0.41 | 0.01 | 94 | 1012.4 |
| 20260506083045 | 43 | 360 | 0.9 | 2.6 | 0.01 | 0.41 | 0.01 | 95 | 1012.2 |
| 20260506082530 | 43 | 360 | 0.9 | 2.6 | 0.01 | 0.41 | 0.01 | 95 | 1012.3 |
| 20260506082030 | 43 | 360 | 1.7 | 2.6 | 0.01 | 0.41 | 0.01 | 95 | 1012.2 |
| 20260506081554 | 43 | 360 | 0.0 | 2.6 | 0.01 | 0.41 | 0.01 | 95 | 1012.6 |
| 20260506081034 | 43 | 360 | 0.9 | 3.5 | 0.01 | 0.41 | 0.01 | 95 | 1012.4 |
| 20260506080530 | 43 | 360 | 0.0 | 3.5 | 0.01 | 0.41 | 0.01 | 95 | 1012.2 |
| 20260506073529 | 43 | 360 | 1.7 | 3.5 | 0.00 | 0.62 | 0.00 | 95 | 1011.9 |
| 20260506073044 | 43 | 360 | 0.9 | 4.3 | 0.00 | 0.62 | 0.00 | 95 | 1012.2 |
| 20260506072529 | 44 | 0 | 0.9 | 7.0 | 0.00 | 0.62 | 0.00 | 95 | 1011.9 |
| 20260506072031 | 44 | 360 | 1.7 | 7.0 | 0.00 | 0.62 | 0.00 | 95 | 1011.8 |
| 20260506071541 | 44 | 360 | 2.6 | 7.0 | 0.00 | 0.62 | 0.00 | 95 | 1011.8 |
| 20260506071030 | 44 | 360 | 1.7 | 3.5 | 0.00 | 0.62 | 0.00 | 95 | 1011.7 |
| 20260506070530 | 44 | 360 | 1.7 | 3.5 | 0.00 | 0.62 | 0.00 | 95 | 1012.4 |
| 20260506062030 | 44 | 360 | 0.9 | 3.5 | 0.00 | 0.63 | 0.00 | 95 | 1012.5 |
| 20260506061541 | 44 | 360 | 1.7 | 3.5 | 0.00 | 0.63 | 0.00 | 95 | 1012.5 |
| 20260506061030 | 44 | 360 | 1.7 | 3.5 | 0.00 | 0.63 | 0.00 | 95 | 1012.6 |
| 20260506060531 | 44 | 360 | 0.9 | 2.6 | 0.00 | 0.63 | 0.00 | 96 | 1012.6 |
| 20260506051029 | 44 | 360 | 0.9 | 3.5 | 0.00 | 0.63 | 0.00 | 95 | 1012.0 |
| 20260506050529 | 44 | 360 | 1.7 | 3.5 | 0.00 | 0.63 | 0.00 | 95 | 1012.0 |
| 20260506045029 | 45 | 360 | 1.7 | 3.5 | 0.00 | 0.63 | 0.63 | 95 | 1012.0 |
| 20260506044544 | 45 | 360 | 0.9 | 2.6 | 0.00 | 0.63 | 0.63 | 95 | 1012.0 |
| 20260506044029 | 45 | 0 | 0.0 | 2.6 | 0.00 | 0.63 | 0.63 | 96 | 1011.9 |
| 20260506043533 | 45 | 360 | 0.9 | 2.6 | 0.00 | 0.63 | 0.63 | 95 | 1011.9 |
| 20260506043045 | 45 | 360 | 0.9 | 2.6 | 0.00 | 0.63 | 0.63 | 95 | 1011.8 |
| 20260506042530 | 45 | 360 | 0.9 | 2.6 | 0.00 | 0.63 | 0.63 | 95 | 1012.0 |
| 20260506042030 | 45 | 360 | 0.9 | 5.2 | 0.00 | 0.63 | 0.63 | 95 | 1011.9 |
| 20260506041546 | 45 | 360 | 0.9 | 5.2 | 0.00 | 0.63 | 0.63 | 95 | 1011.7 |
| 20260506041029 | 45 | 360 | 1.7 | 4.3 | 0.00 | 0.63 | 0.63 | 95 | 1011.5 |
| 20260506040533 | 45 | 360 | 0.9 | 4.3 | 0.00 | 0.63 | 0.63 | 95 | 1011.7 |
| 20260506040042 | 45 | 360 | 2.6 | 4.3 | 0.00 | 0.63 | 0.63 | 95 | 1011.4 |
| 20260506035530 | 45 | 360 | 0.9 | 4.3 | 0.00 | 0.63 | 0.63 | 95 | 1011.5 |
| 20260506035030 | 45 | 360 | 0.9 | 5.2 | 0.00 | 0.63 | 0.63 | 95 | 1011.4 |
| 20260506034541 | 45 | 360 | 2.6 | 5.2 | 0.00 | 0.63 | 0.63 | 95 | 1011.2 |
| 20260506034030 | 45 | 360 | 1.7 | 3.5 | 0.00 | 0.63 | 0.63 | 95 | 1011.2 |
| 20260506033529 | 45 | 360 | 1.7 | 3.5 | 0.00 | 0.63 | 0.63 | 95 | 1011.2 |
| 20260506033036 | 45 | 360 | 1.7 | 5.2 | 0.00 | 0.63 | 0.63 | 95 | 1011.0 |
| 20260506032530 | 45 | 360 | 0.9 | 5.2 | 0.00 | 0.63 | 0.63 | 95 | 1011.0 |
| 20260506032030 | 45 | 360 | 1.7 | 3.5 | 0.00 | 0.63 | 0.63 | 96 | 1010.9 |
| 20260506031543 | 45 | 360 | 0.9 | 3.5 | 0.00 | 0.63 | 0.63 | 95 | 1010.9 |
| 20260506031029 | 45 | 360 | 0.9 | 3.5 | 0.00 | 0.63 | 0.63 | 95 | 1010.8 |
| 20260506030529 | 45 | 360 | 0.0 | 3.5 | 0.00 | 0.63 | 0.63 | 95 | 1010.8 |
| 20260506030043 | 45 | 360 | 0.9 | 2.6 | 0.00 | 0.63 | 0.63 | 96 | 1010.4 |
| 20260506025529 | 45 | 360 | 0.0 | 2.6 | 0.00 | 0.63 | 0.63 | 95 | 1010.8 |
| 20260506025028 | 45 | 360 | 1.7 | 2.6 | 0.00 | 0.63 | 0.63 | 95 | 1010.2 |
| 20260506024541 | 45 | 360 | 0.9 | 2.6 | 0.00 | 0.63 | 0.63 | 95 | 1010.3 |
| 20260506024029 | 45 | 360 | 1.7 | 2.6 | 0.00 | 0.63 | 0.63 | 95 | 1010.0 |
| 20260506023531 | 45 | 360 | 0.9 | 7.0 | 0.00 | 0.63 | 0.63 | 95 | 1010.0 |
| 20260506023058 | 45 | 0 | 0.9 | 7.0 | 0.00 | 0.63 | 0.63 | 95 | 1010.1 |
| 20260506022530 | 45 | 360 | 1.7 | 5.2 | 0.00 | 0.63 | 0.63 | 95 | 1010.0 |
| 20260506022028 | 45 | 360 | 1.7 | 4.3 | 0.00 | 0.63 | 0.63 | 95 | 1010.0 |
| 20260506021604 | 45 | 360 | 0.9 | 4.3 | 0.00 | 0.63 | 0.63 | 95 | 1010.2 |